TimeEDT,TemperatureF,Dew PointF,Humidity,Sea Level PressureIn,VisibilityMPH,Wind Direction,Wind SpeedMPH,Gust SpeedMPH,PrecipitationIn,Events,Conditions,WindDirDegrees,DateUTC
12:52 AM,50.0,48.0,93,30.37,10.0,Calm,Calm,-,N/A,,Clear,0,2013-08-25 04:52:00
1:52 AM,48.9,46.9,93,30.37,10.0,Calm,Calm,-,N/A,,Clear,0,2013-08-25 05:52:00
2:52 AM,48.0,46.0,93,30.37,10.0,Calm,Calm,-,N/A,,Clear,0,2013-08-25 06:52:00
3:03 AM,48.2,46.4,93,30.36,9.0,Calm,Calm,-,N/A,,Scattered Clouds,0,2013-08-25 07:03:00
3:12 AM,48.2,46.4,93,30.36,10.0,Calm,Calm,-,N/A,,Mostly Cloudy,0,2013-08-25 07:12:00
3:52 AM,48.0,46.9,96,30.38,10.0,Calm,Calm,-,N/A,,Overcast,0,2013-08-25 07:52:00
4:17 AM,48.2,48.2,100,30.38,2.0,Calm,Calm,-,N/A,,Overcast,0,2013-08-25 08:17:00
4:26 AM,50.0,48.2,94,30.38,8.0,Calm,Calm,-,N/A,,Overcast,0,2013-08-25 08:26:00
4:52 AM,50.0,48.9,96,30.39,4.0,Calm,Calm,-,N/A,,Overcast,0,2013-08-25 08:52:00
5:52 AM,48.0,46.9,96,30.40,10.0,Calm,Calm,-,N/A,,Mostly Cloudy,0,2013-08-25 09:52:00
6:15 AM,46.4,46.4,100,30.40,2.5,Calm,Calm,-,N/A,,Mostly Cloudy,0,2013-08-25 10:15:00
6:18 AM,46.4,46.4,100,30.40,4.0,Calm,Calm,-,N/A,,Scattered Clouds,0,2013-08-25 10:18:00
6:28 AM,46.4,46.4,100,30.40,9.0,Calm,Calm,-,N/A,,Mostly Cloudy,0,2013-08-25 10:28:00
6:52 AM,48.0,46.0,93,30.42,10.0,Calm,Calm,-,N/A,,Mostly Cloudy,0,2013-08-25 10:52:00
7:03 AM,48.2,46.4,93,30.42,10.0,Calm,Calm,-,N/A,,Scattered Clouds,0,2013-08-25 11:03:00
7:52 AM,52.0,48.9,89,30.41,10.0,Calm,Calm,-,N/A,,Clear,0,2013-08-25 11:52:00
8:52 AM,57.0,50.0,77,30.41,10.0,Calm,Calm,-,N/A,,Clear,0,2013-08-25 12:52:00
9:52 AM,64.0,50.0,60,30.39,10.0,Calm,Calm,-,N/A,,Clear,0,2013-08-25 13:52:00
10:52 AM,69.1,50.0,51,30.38,10.0,Calm,Calm,-,N/A,,Clear,0,2013-08-25 14:52:00
11:52 AM,75.0,50.0,41,30.34,10.0,Variable,3.5,-,N/A,,Clear,0,2013-08-25 15:52:00
12:52 PM,75.9,48.0,37,30.32,10.0,Calm,Calm,-,0.01,,Partly Cloudy,0,2013-08-25 16:52:00
1:52 PM,78.1,48.0,35,30.31,10.0,Variable,4.6,-,N/A,,Clear,0,2013-08-25 17:52:00
2:52 PM,78.1,45.0,31,30.30,10.0,WSW,6.9,-,N/A,,Clear,240,2013-08-25 18:52:00
3:52 PM,78.1,48.0,35,30.28,10.0,WSW,4.6,-,N/A,,Clear,240,2013-08-25 19:52:00
4:52 PM,77.0,51.1,40,30.25,10.0,Variable,3.5,-,N/A,,Clear,0,2013-08-25 20:52:00
5:52 PM,75.0,52.0,44,30.23,10.0,West,3.5,-,N/A,,Clear,270,2013-08-25 21:52:00
6:52 PM,69.1,57.9,68,30.22,10.0,Calm,Calm,-,N/A,,Clear,0,2013-08-25 22:52:00
7:52 PM,64.9,57.9,78,30.22,10.0,Calm,Calm,-,N/A,,Clear,0,2013-08-25 23:52:00
8:52 PM,61.0,57.9,90,30.21,10.0,Calm,Calm,-,N/A,,Clear,0,2013-08-26 00:52:00
9:52 PM,62.1,57.9,86,30.21,10.0,Calm,Calm,-,N/A,,Clear,0,2013-08-26 01:52:00
10:52 PM,62.1,57.9,86,30.20,10.0,Calm,Calm,-,N/A,,Clear,0,2013-08-26 02:52:00
11:52 PM,62.1,59.0,90,30.19,10.0,Calm,Calm,-,N/A,,Scattered Clouds,0,2013-08-26 03:52:00